Погода в Листопадовке

Россия / Воронежская область     51°24′43″N   41°26′30″E
темп.,
°C
ветер,
м/с
пор.,
м/с
влажн.,
%
обл.,
%
осадки,
мм/ч
давл.,
гПа
погр.,
м
8 мая, сб
сб800:00+7юв228948 0.0 101721
03:00+6ю229255 0.0 101823
06:00+7юв348679 0.0 1016109
09:00+13юв456194 0.0 1015546
12:00+15ююв565132 0.0 1013986
15:00+14ююв5106396 0.0 1012426
18:00+13ююв51185100 0.4 1010428
21:00+13ююв61592100 1.0 1008487
9 мая, вс
вс900:00+12ююз3596100 0.2 1008115
03:00+11юз3597100 0.5 1008144
06:00+7з6993100 1.5 1009394
09:00+6зсз61091100 2.7 1011590
12:00+6зсз71090100 4.0 1012714
15:00+7сз61082100 4.4 10151113
18:00+7ссз61182100 0.1 10161069
21:00+6ссз51183100 0.1 1018922
10 мая, пн
пн1000:00+6ссз71284100 0.1 10181011
03:00+6с61183100 0.1 1019858
06:00+6с71486100 0.0 1020805
09:00+7с91687100 0.0 1019808
12:00+7с101790100 0.2 1018650
15:00+8ссв101994100 2.2 1018643
18:00+9ссв102093100 1.2 1018617
21:00+10ссв102090100 1.6 1018684
11 мая, вт
вт1100:00+10св91790100 0.0 1018573
03:00+10ссв91894100 0.7 1017417
06:00+11всв71495100 1.6 1018743
09:00+9вюв489491 4.9 1022636
12:00+14вюв68620 0.0 10231250
15:00+16вюв5756100 0.0 10241453
18:00+13ю3476100 0.0 1024225
21:00+11ссв3484100 0.4 102379
12 мая, ср
ср1200:00+9в2496100 0.0 1024128
03:00+9в2297100 0.4 102235
06:00+9ссз0195100 4.8 102282
09:00+13в11695 4.8 1023587
12:00+16всв235766 0.0 10231127
15:00+18в455764 0.0 10211408
18:00+16всв368258 0.1 1021166
21:00+15всв3891100 0.3 1019193